Regional Weather Roundup
Issued by NWS

Home | Current Version | Previous Version | Text Only | Print | Product List | Glossary On
Versions: 1 2 3 4 5 6 7 8 9 10 11 12 13 14 15 16 17 18 19 20 21 22 23 24 25 26 27 28 29 30 31 32 33 34 35 36 37 38 39 40 41 42 43 44 45 46 47 48 49 50
000
ASUS43 KFSD 292302
RWRSD

WEATHER ROUNDUP FOR SOUTH DAKOTA
NATIONAL WEATHER SERVICE SIOUX FALLS SD
600 PM CDT THU SEP 29 2016

NOTE: "FAIR" INDICATES FEW OR NO CLOUDS BELOW 12,000 FEET WITH NO
SIGNIFICANT WEATHER AND/OR OBSTRUCTIONS TO VISIBILITY.


SDZ001>005-009-010-012>017-300000-
NORTHWEST AND NORTH CENTRAL SOUTH DAKOTA

CITY           SKY/WX    TMP DP  RH WIND       PRES   REMARKS
BUFFALO          N/A     79  44  28 SE26G35   30.08S
FAITH            N/A     76  41  28 SE23G30   30.19S
MOBRIDGE       SUNNY     73  41  31 SE18      30.24F
$$

SDZ012>016-024>037-041>051-057-063-072>074-300000-
SOUTHWEST AND SOUTH CENTRAL SOUTH DAKOTA

CITY           SKY/WX    TMP DP  RH WIND       PRES   REMARKS
RAPID CTY ARPT SUNNY     81  44  27 S17G25    30.17F
PIERRE         SUNNY     71  42  35 SE16      30.24F
CUSTER         SUNNY     70  41  34 VRB7      30.30S
ELLSWORTH AFB  SUNNY     81  44  27 S20       30.16F
PHILIP         SUNNY     79  42  26 SE17G24   30.19S
PINE RIDGE     SUNNY     78  42  27 S15G23    30.21F
WINNER         FAIR      72  43  35 SE17      30.28F
$$

SDZ004>011-016>023-039-040-300000-
NORTHEAST SOUTH DAKOTA

CITY           SKY/WX    TMP DP  RH WIND       PRES   REMARKS
ABERDEEN       SUNNY     68  44  42 SE13      30.33F
WATERTOWN      SUNNY     65  47  52 E7        30.36F
SISSETON         N/A     66  46  48 S9        30.36F
$$

SDZ017-020-022-023-036>040-048>070-300000-
SOUTHEAST SOUTH DAKOTA

CITY           SKY/WX    TMP DP  RH WIND       PRES   REMARKS
SIOUX FALLS    SUNNY     68  48  48 SE7       30.35F
HURON          SUNNY     68  46  45 SE9       30.33S
CHAMBERLAIN    SUNNY     69  46  43 SE14G20   30.30F
MITCHELL       SUNNY     69  46  43 S12       30.34F
YANKTON        SUNNY     66  48  52 SE7       30.33S
$$

ABBREVIATIONS USED IN REMARKS
   TC - TEMPERATURE IN CELSIUS
  WCI - WIND CHILL INDEX
   HX - HEAT INDEX
  VSB - VISIBILITY





USA.gov is the U.S. government's official web portal to all federal, state and local government web resources and services.